| time (UTC) | temp F | wind direction | speed MPH | gust MPH | rain 1hr in | rain 24hr in | rain mn in | humidity % | barometer mb |
| 20260901064501 | 0 | 0.0 | 0.0 | 0.00 | 0.61 | 0.00 | 1013.8 | ||
| 20260901063059 | 0 | 0.0 | 0.0 | 0.00 | 0.61 | 0.00 | 1013.6 | ||
| 20260901061555 | 0 | 0.0 | 0.0 | 0.00 | 0.61 | 0.00 | 1013.7 | ||
| 20260901060049 | 0 | 0.0 | 0.0 | 0.00 | 0.61 | 0.00 | 1014.0 | ||
| 20260901054543 | 0 | 0.0 | 0.0 | 0.00 | 0.61 | 0.00 | 1014.2 | ||
| 20260901053054 | 0 | 0.0 | 0.0 | 0.00 | 0.61 | 0.00 | 1014.5 | ||
| 20260901051539 | 0 | 0.0 | 0.0 | 0.00 | 0.61 | 0.00 | 1014.5 | ||
| 20260901050031 | 0 | 0.0 | 0.0 | 0.00 | 0.61 | 0.00 | 1014.8 | ||
| 20260901044532 | 0 | 0.0 | 0.0 | 0.00 | 0.61 | 0.00 | 1014.8 | ||
| 20260901043024 | 0 | 0.0 | 0.0 | 0.00 | 0.61 | 0.00 | 1014.9 | ||
| 20260901041523 | 76 | 176 | 0.0 | 0.0 | 0.00 | 0.61 | 0.00 | 1 | 1015.1 |
| 20260901040013 | 77 | 178 | 0.0 | 0.0 | 0.00 | 0.61 | 0.00 | 1 | 1015.1 |
| 20260901034520 | 77 | 179 | 0.0 | 0.0 | 0.00 | 0.61 | 0.61 | 1 | 1015.1 |
| 20260901033011 | 77 | 179 | 0.0 | 0.0 | 0.00 | 0.61 | 0.61 | 1 | 1015.1 |
| 20260901031518 | 77 | 179 | 0.0 | 0.0 | 0.00 | 0.61 | 0.61 | 1 | 1015.1 |
| 20260901030017 | 77 | 179 | 0.0 | 0.0 | 0.00 | 0.61 | 0.61 | 1 | 1015.2 |
| 20260901024514 | 77 | 179 | 0.0 | 0.0 | 0.00 | 0.61 | 0.61 | 1 | 1015.3 |
| 20260901023001 | 77 | 179 | 0.0 | 0.0 | 0.00 | 0.61 | 0.61 | 1 | 1015.3 |
| 20260901021557 | 78 | 179 | 0.0 | 0.0 | 0.00 | 0.61 | 0.61 | 1 | 1015.3 |
| 20260901020053 | 78 | 179 | 0.0 | 0.0 | 0.00 | 0.61 | 0.61 | 1 | 1015.0 |
| 20260901014549 | 78 | 179 | 0.0 | 0.0 | 0.00 | 0.61 | 0.61 | 1 | 1014.8 |
| 20260901013049 | 78 | 179 | 0.0 | 0.0 | 0.00 | 0.61 | 0.61 | 1 | 1014.7 |
| 20260901011539 | 79 | 179 | 0.0 | 0.0 | 0.00 | 0.61 | 0.61 | 1 | 1014.5 |
| 20260901010038 | 79 | 179 | 0.0 | 0.0 | 0.00 | 0.61 | 0.61 | 1 | 1014.5 |
| 20260901004530 | 79 | 179 | 0.0 | 0.0 | 0.00 | 0.61 | 0.61 | 1 | 1014.4 |
| 20260901003028 | 80 | 179 | 0.0 | 0.0 | 0.00 | 0.61 | 0.61 | 1 | 1014.4 |
| 20260901001527 | 80 | 179 | 0.0 | 0.0 | 0.00 | 0.61 | 0.61 | 1 | 1014.3 |
| 20260901000022 | 80 | 179 | 0.0 | 0.0 | 0.00 | 0.61 | 0.61 | 1 | 1014.3 |
| 20260831234518 | 81 | 179 | 0.0 | 0.0 | 0.00 | 0.61 | 0.61 | 1 | 1014.3 |
| 20260831233015 | 82 | 175 | 0.0 | 0.0 | 0.00 | 0.61 | 0.61 | 1 | 1014.1 |
| 20260831231509 | 82 | 176 | 0.0 | 0.0 | 0.00 | 0.61 | 0.61 | 1 | 1014.2 |
| 20260831230004 | 83 | 176 | 0.0 | 0.0 | 0.00 | 0.61 | 0.61 | 1 | 1014.1 |
| 20260831224611 | 83 | 180 | 0.0 | 0.0 | 0.00 | 0.61 | 0.61 | 1 | 1014.1 |
| 20260831223056 | 83 | 179 | 0.0 | 0.0 | 0.00 | 0.61 | 0.61 | 1 | 1014.0 |
| 20260831221613 | 83 | 181 | 0.0 | 0.0 | 0.00 | 0.61 | 0.61 | 1 | 1014.0 |
| 20260831220047 | 82 | 170 | 0.0 | 0.0 | 0.00 | 0.61 | 0.61 | 1 | 1013.9 |
| 20260831214546 | 82 | 180 | 0.0 | 0.0 | 0.00 | 0.61 | 0.61 | 1 | 1014.1 |
| 20260831213038 | 82 | 180 | 0.0 | 0.0 | 0.00 | 0.61 | 0.61 | 1 | 1014.0 |
| 20260831211537 | 82 | 180 | 0.0 | 0.0 | 0.01 | 0.61 | 0.61 | 1 | 1014.0 |
| 20260831210028 | 82 | 180 | 0.0 | 0.0 | 0.01 | 0.61 | 0.61 | 1 | 1014.1 |
| 20260831204525 | 83 | 166 | 0.0 | 0.0 | 0.01 | 0.61 | 0.61 | 1 | 1014.4 |
| 20260831203020 | 83 | 166 | 0.0 | 0.0 | 0.01 | 0.61 | 0.61 | 1 | 1014.3 |
| 20260831201516 | 84 | 179 | 0.0 | 0.0 | 0.00 | 0.60 | 0.60 | 19 | 1014.2 |
| 20260831200011 | 85 | 176 | 0.0 | 0.0 | 0.00 | 0.60 | 0.60 | 31 | 1014.6 |
| 20260831194520 | 86 | 198 | 0.0 | 3.0 | 0.00 | 0.60 | 0.60 | 37 | 1014.3 |
| 20260831193002 | 86 | 161 | 0.0 | 3.0 | 0.00 | 0.60 | 0.60 | 18 | 1014.2 |
| 20260831191558 | 84 | 157 | 0.0 | 0.0 | 0.00 | 0.60 | 0.60 | 1 | 1014.6 |
| 20260831190105 | 82 | 167 | 0.0 | 0.0 | 0.00 | 0.60 | 0.60 | 1 | 1014.6 |
| 20260831184548 | 81 | 165 | 0.0 | 0.0 | 0.00 | 0.60 | 0.60 | 1 | 1014.7 |
| 20260831183049 | 80 | 160 | 0.0 | 0.0 | 0.00 | 0.60 | 0.60 | 1 | 1015.1 |
| 20260831181541 | 80 | 165 | 0.0 | 0.0 | 0.00 | 0.60 | 0.60 | 1 | 1015.1 |
| 20260831180036 | 79 | 164 | 0.0 | 0.0 | 0.00 | 0.60 | 0.60 | 1 | 1015.3 |
| 20260831174547 | 78 | 152 | 0.0 | 0.0 | 0.02 | 0.60 | 0.60 | 1 | 1015.2 |
| 20260831173028 | 78 | 158 | 0.0 | 0.0 | 0.03 | 0.60 | 0.60 | 1 | 1015.2 |
| 20260831171539 | 77 | 161 | 0.0 | 0.0 | 0.04 | 0.60 | 0.60 | 1 | 1015.3 |
| 20260831170045 | 77 | 167 | 0.0 | 0.0 | 0.05 | 0.60 | 0.60 | 1 | 1015.6 |
| 20260831164513 | 77 | 182 | 0.0 | 0.0 | 0.11 | 0.56 | 0.56 | 1 | 1015.7 |
| 20260831163009 | 77 | 162 | 0.0 | 0.0 | 0.50 | 0.56 | 0.56 | 1 | 1015.9 |
| 20260831161504 | 77 | 172 | 0.0 | 0.0 | 0.56 | 0.56 | 0.56 | 1 | 1016.3 |
| 20260831160001 | 77 | 157 | 0.0 | 0.0 | 0.54 | 0.71 | 0.54 | 1 | 1016.4 |
| 20260831154610 | 78 | 155 | 0.0 | 0.0 | 0.46 | 0.63 | 0.46 | 1 | 1016.4 |
| 20260831153052 | 81 | 149 | 0.0 | 0.0 | 0.07 | 0.24 | 0.07 | 30 | 1016.7 |
| 20260831151548 | 86 | 173 | 0.0 | 1.0 | 0.00 | 0.17 | 0.00 | 53 | 1016.1 |
| 20260831150044 | 89 | 188 | 0.0 | 0.0 | 0.00 | 0.17 | 0.00 | 52 | 1015.9 |
| 20260831144539 | 90 | 193 | 0.0 | 0.0 | 0.00 | 0.33 | 0.00 | 59 | 1015.7 |
| 20260831143035 | 89 | 179 | 0.0 | 0.0 | 0.00 | 0.33 | 0.00 | 53 | 1015.6 |
| 20260831141530 | 88 | 191 | 0.0 | 0.0 | 0.00 | 0.33 | 0.00 | 52 | 1015.6 |
| 20260831140029 | 87 | 195 | 0.0 | 0.0 | 0.00 | 0.33 | 0.00 | 46 | 1015.6 |
| 20260831134521 | 88 | 182 | 0.0 | 0.0 | 0.00 | 0.33 | 0.00 | 46 | 1015.5 |
| 20260831133016 | 87 | 180 | 0.0 | 0.0 | 0.00 | 0.33 | 0.00 | 37 | 1015.4 |
| 20260831131513 | 87 | 174 | 0.0 | 0.0 | 0.00 | 0.33 | 0.00 | 32 | 1015.3 |
| 20260831130006 | 85 | 176 | 0.0 | 0.0 | 0.00 | 0.33 | 0.00 | 18 | 1015.0 |
| 20260831124503 | 83 | 173 | 0.0 | 0.0 | 0.00 | 0.33 | 0.00 | 1 | 1015.0 |
| 20260831123058 | 80 | 167 | 0.0 | 0.0 | 0.00 | 0.33 | 0.00 | 1 | 1014.9 |
| 20260831121554 | 78 | 169 | 0.0 | 0.0 | 0.00 | 0.33 | 0.00 | 1 | 1014.9 |
| 20260831120050 | 76 | 167 | 0.0 | 0.0 | 0.00 | 0.33 | 0.00 | 1 | 1014.8 |
| 20260831114546 | 76 | 167 | 0.0 | 0.0 | 0.00 | 0.33 | 0.00 | 1 | 1014.5 |
| 20260831113043 | 0 | 0.0 | 0.0 | 0.00 | 0.33 | 0.00 | 1014.3 | ||
| 20260831111536 | 0 | 0.0 | 0.0 | 0.00 | 0.33 | 0.00 | 1014.3 | ||
| 20260831110032 | 0 | 0.0 | 0.0 | 0.00 | 0.33 | 0.00 | 1014.1 | ||
| 20260831104533 | 0 | 0.0 | 0.0 | 0.00 | 0.33 | 0.00 | 1014.0 | ||
| 20260831103043 | 0 | 0.0 | 0.0 | 0.00 | 0.33 | 0.00 | 1013.8 | ||
| 20260831101518 | 0 | 0.0 | 0.0 | 0.00 | 0.33 | 0.00 | 1013.8 | ||
| 20260831100021 | 0 | 0.0 | 0.0 | 0.00 | 0.33 | 0.00 | 1013.6 | ||
| 20260831094522 | 0 | 0.0 | 0.0 | 0.00 | 0.33 | 0.00 | 1013.5 | ||
| 20260831093006 | 0 | 0.0 | 0.0 | 0.00 | 0.33 | 0.00 | 1013.5 | ||
| 20260831091614 | 0 | 0.0 | 0.0 | 0.00 | 0.33 | 0.00 | 1013.5 | ||
| 20260831084551 | 0 | 0.0 | 0.0 | 0.00 | 0.33 | 0.00 | 1013.8 | ||
| 20260831083047 | 0 | 0.0 | 0.0 | 0.00 | 0.33 | 0.00 | 1013.9 | ||
| 20260831081542 | 0 | 0.0 | 0.0 | 0.00 | 0.33 | 0.00 | 1014.1 | ||
| 20260831080052 | 0 | 0.0 | 0.0 | 0.00 | 0.33 | 0.00 | 1013.9 | ||
| 20260831074534 | 0 | 0.0 | 0.0 | 0.00 | 0.33 | 0.00 | 1014.0 | ||
| 20260831073033 | 0 | 0.0 | 0.0 | 0.00 | 0.33 | 0.00 | 1014.0 | ||
| 20260831071525 | 0 | 0.0 | 0.0 | 0.00 | 0.33 | 0.00 | 1013.9 | ||
| 20260831070021 | 0 | 0.0 | 0.0 | 0.00 | 0.33 | 0.00 | 1014.1 |